Location: Borea
(45.6167°N, 23.0167°E)
Time: 04:12:09
(UTC+00:00)

Cosmos 2322 Rocket - Pass Details

Date: 03 February 2023
Orbit: 831 x 852 km, 71.0° (Epoch: 29 March)

Event Time Altitude Azimuth Distance (km) Brightness Sun altitude
Rises 18:17:06 0° 243° (WSW) 3,368 6.2 -28.3°
Reaches altitude 10° 18:19:57 10° 256° (WSW) 2,438 5.4 -28.7°
Maximum altitude 18:24:31 25° 311° (NW) 1,617 4.1 -29.5°
Enters shadow 18:28:53 11° 5° (N) 2,383 4.5 -30.3°
